www.pogodaiklimat.ru

Погода и климат >> Архив погоды >> Россия >> город Севастополь >> Севастополь


АРХИВ ПОГОДЫ в Севастополе

Время (UTC), дата Ветер
(напр.,м/с)
 
Видим.   Явления Облачность Т
(С)
Тd
(С)
f
(%)
Тe
(С)
Тes
(С)
Комфортность P
(гПа)
Po
(гПа)
Тmin
(С)
Tmax
(С)
R
(мм)
R24
(мм)
S
(см)
18 10.07 СВ 1 20 км 1 балл +25.1 +22.6 86 +33 +33 очень
душно
1011.4 1010.7 +31.0
21 10.07 В 2 20 км ясно +23.8 +21.3 86 +30 +30 очень
душно
1011.4 1010.7
00 11.07 В 2 20 км 2 балла +21.4 +19.0 86 +26 +26 душно 1011.4 1010.7
03 11.07 В 3 20 км 2 балла +21.0 +18.4 85 +26 +26 душно 1011.4 1010.7 +20.9
06 11.07 С 1 4000 м дымка 5/5 600 м
[Cu hum]
+25.4 +22.6 85 +33 +39 очень
душно
1010.0 1009.5 +21.6
09 11.07 СЗ 5 20 км ясно +26.7 +21.4 73 +34 +44 очень
душно
1010.6 1010.1
12 11.07 СЗ 5 20 км ясно +26.7 +22.1 76 +35 +42 очень
душно
1010.8 1010.3
15 11.07 СЗ 5 20 км ясно +25.9 +22.5 82 +34 +36 очень
душно
1010.6 1010.1
18 11.07 СЗ 5 20 км ясно +24.3 +22.1 88 +32 +32 очень
душно
1010.6 1010.1 +28.1
21 11.07 С 4 20 км 3/0
[Ac lent]
+23.9 +21.9 89 +31 +31 очень
душно
1011.1 1010.6
00 12.07 С 2 10 км 3/0
[Ac lent]
+23.1 +21.8 92 +31 +31 очень
душно
1010.9 1010.4
03 12.07 С 1 4000 м дымка 8/0
[Ci fib]
+21.4 +20.7 96 +27 +27 душно 1010.8 1010.3 +21.1
06 12.07 С 2 4000 м дымка 8/3 600 м
[Cu med, cong Ci fib]
+25.1 +21.9 82 +32 +37 очень
душно
1010.9 1010.4 +21.1
09 12.07 СЗ 2 20 км 7 баллов +27.2 +20.8 68 +34 +39 очень
душно
1011.4 1010.7
12 12.07 З 4 20 км 6/3 600 м
[Cu med, cong Ci fib]
+27.9 +23.4 77 +38 +44 очень
душно
1010.8 1010.3
15 12.07 З 4 10 км 4/3 600 м
[Cu med, cong Cc]
+27.0 +23.8 83 +37 +39 очень
душно
1010.7 1010.2
18 12.07 СЗ 3 4000 м дымка 3/3 600 м
[Cu med, cong]
+25.1 +23.7 92 +34 +34 очень
душно
1010.7 1010.2 +28.7
21 12.07 СЗ 3 10 км ясно +24.7 +22.9 90 +33 +33 очень
душно
1011.0 1010.5
00 13.07 штиль 0 10 км ясно +23.1 +22.1 94 +31 +31 очень
душно
1010.7 1010.2
03 13.07 штиль 0 1000 м дымка 6/0
[Ac lent Ci fib]
+22.1 +21.5 96 +29 +29 очень
душно
1010.1 1009.6 +21.9
06 13.07 штиль 0 4000 м дымка 3/0
[Ac cast Ci fib]
+24.6 +22.2 87 +32 +41 очень
душно
1010.0 1009.5 +21.9
09 13.07 СЗ 2 10 км 5/3 600 м
[Cu med, cong Ac cast]
+27.6 +23.8 80 +38 +48 очень
душно
1009.8 1009.3
12 13.07 З 2 20 км 3/3 600 м
[Cu med, cong]
+29.1 +23.6 72 +40 +50 очень
душно
1009.4 1008.9
15 13.07 ЮЗ 1 20 км 3/3 600 м
[Cu med, cong]
+28.9 +24.8 79 +41 +44 опасность
перегрева
1008.3 1007.8
18 13.07 С 7 20 км 3/3 600 м
[Cu med, cong Ac cast]
+25.9 +21.9 79 +33 +33 очень
душно
1008.6 1008.1 +29.6
21 13.07 С 5
{10}
20 км ясно +24.9 +21.8 83 +32 +32 очень
душно
1008.5 1008.0
00 14.07 С 2 20 км ясно +24.5 +21.5 83 +31 +31 очень
душно
1007.4 1006.9
03 14.07 нст 1 20 км 3/3 600 м
[Cu med, cong]
+22.9 +20.3 85 +30 +30 очень
душно
1007.4 1006.9 +22.6
06 14.07 С 4 10 км 3/0
[Ac lent]
+26.1 +21.9 78 +34 +38 очень
душно
1007.7 1007.2 +22.6
09 14.07 СЗ 6 10 км 6/3 600 м
[Cu med, cong Ci fib]
+27.6 +21.8 71 +36 +40 очень
душно
1008.0 1007.5
12 14.07 СЗ 6
{10}
20 км 8/3 600 м
[Cu med, cong Ac cast]
+27.2 +20.9 68 +34 +36 очень
душно
1007.7 1007.2
15 14.07 СЗ 7-10
{11}
20 км 8/0
[Ac cast Ci fib]
+27.3 +20.8 68 +34 +35 очень
душно
1007.8 1007.3
18 14.07 СЗ 7-10
{10}
20 км 6/0
[Ci fib]
+25.3 +18.9 68 +30 +30 душно 1007.5 1007.0 +28.7
21 14.07 СЗ 4
{10}
20 км ясно +24.5 +21.0 81 +31 +31 очень
душно
1008.2 1007.7
00 15.07 С 2 20 км ясно +23.1 +20.8 87 +31 +31 очень
душно
1008.0 1007.5
03 15.07 С 1 20 км 4/0
[Ac lent Ci fib]
+21.7 +20.3 92 +27 +28 душно 1007.6 1007.1 +21.6
06 15.07 С 2 20 км 3/0
[Ci fib]
+24.9 +20.5 77 +31 +39 очень
душно
1007.6 1007.1 +21.6
09 15.07 СЗ 3 20 км 3/3 600 м
[Cu med, cong]
+27.2 +21.2 70 +34 +45 очень
душно
1008.3 1007.8
12 15.07 СЗ 5 20 км 3/3 600 м
[Cu med, cong]
+26.5 +18.6 62 +31 +37 душно 1008.3 1007.8
15 15.07 З 4 20 км 3/3 600 м
[Cu med, cong]
+26.2 +18.7 63 +31 +33 очень
душно
1008.1 1007.6
18 15.07 З 3 20 км ясно +23.9 +18.0 70 +28 +28 душно 1008.1 1007.6 +27.8
21 15.07 З 2 20 км 3/0
[Ac lent]
+23.5 +18.6 74 +28 +28 душно 1008.0 1007.5
00 16.07 З 3 20 км 4/4 600 м
[Cb cap]
+23.7 +19.8 79 +29 +29 душно 1007.4 1006.9
03 16.07 ЮЗ 8-12
{13}
4000 м гроза, ливневой дождь 10/10 300 м
[Cb cap]
+20.7 +18.6 88 +24 +24 комфорт 1007.1 1006.6 +20.4 2
06 16.07 Ю 3
{12}
10 км гроза без осадков {ливн. осадки} 8/6 300 м
[Cb cap Ac cast]
+19.9 +18.5 92 +23 +25 комфорт 1006.8 1006.3 +19.5 17
09 16.07 З 2 20 км гроза без осадков 6/4 600 м
[Cb cap Ci fib]
+25.7 +20.2 72 +32 +42 очень
душно
1006.8 1006.3
12 16.07 СЗ 5 20 км {гроза} 6/6 600 м
[Cu Sc]
+26.4 +20.3 69 +33 +36 очень
душно
1007.4 1006.9
15 16.07 З 4 20 км 5/5 600 м
[Cu med, cong]
+25.3 +18.6 66 +30 +31 душно 1007.6 1007.1 15
18 16.07 З 4 20 км 6/6 600 м
[Cb cap]
+23.6 +18.0 71 +28 +28 душно 1007.5 1007.0 +26.9
21 16.07 З 4 20 км 4/4 600 м
[Cu med, cong]
+23.9 +18.4 71 +28 +28 душно 1007.4 1006.9
00 17.07 З 6 20 км 2 балла +24.1 +20.4 80 +30 +30 очень
душно
1007.4 1006.7
03 17.07 ЮЗ 3 20 км 4 балла +23.4 +19.9 81 +30 +31 очень
душно
1007.4 1006.7 +23.4
06 17.07 СВ 4 10 км гроза, ливневой дождь 10 баллов +20.7 +18.6 88 +25 +25 комфорт 1007.4 1006.7 +20.7 1
09 17.07 ЮЗ 4 20 км 7 баллов +26.1 +22.4 80 +34 +38 очень
душно
1006.0 1005.3
12 17.07 З 5 20 км 2 балла +25.7 +18.6 65 +31 +37 очень
душно
1007.4 1006.7

 

Местоположение метеостанции Севастополь (город Севастополь, Россия): широта 44.62 долгота 33.53 высота над уровнем моря 6 м.

В архиве по умолчанию представлена погода в Севастополе за последнюю неделю. Архивные данные за месяц целиком и за предыдущие месяцы, начиная с января 2011 года, Вы можете получить, выбрав интересующий диапазон дат из раскрывающегося списка и нажав кнопку "Ввод!".


*Определитесь, кто Вы:
робот инопланетянин человек

Внимание! Время в таблицах - всемирное. Для получения местного времени необходимо прибавить поправку, которая в Севастополе равна 3 ч.

Смотрите также архив погоды в соседних городах и на ближайших метеорологических станциях:

Погода в Херсонесском Маяке (город Севастополь, Россия) (13 км)
Погода в Почтовом (Крым, Россия) (41 км)
Погода в Ай-Петри (Крым, Россия) (47 км)
Погода в Ялте (Крым, Россия) (53 км)
Погода в Симферополе (Крым, Россия) (57 км)
Погода в Никитском саду (Крым, Россия) (58 км)
Погода в Симферополе город (Крым, Россия) (59 км)
Погода в Евпатории (Крым, Россия) (64 км)
Погода в Ангарском Перевале (Крым, Россия) (66 км)
Погода в Алуште (Крым, Россия) (69 км)

Пояснения к столбцам:

Ветер - указаны скорость ветра в м/с - средняя за 10 мин, порывы в срок и между сроками (в фигурных скобках) и направление, откуда дует ветер: С - северный, СВ - северо-восточный, В - восточный, ЮВ - юго-восточный, Ю - южный, ЮЗ - юго-западный, З - западный, СЗ - северо-западный.
Видимость - горизонтальная дальность видимости в метрах или километрах. При видимости от 1 до 10 км при отсутствии осадков обычно наблюдается дымка, при ухудшении видимости до 1 км и менее - туман. В сухую погоду видимость может ухудшаться дымом, пылью или мглою.
Явления - указаны атмосферные явления, наблюдавшиеся в срок или в последний час перед сроком; фигурными скобками обозначены явления, наблюдавшиеся между сроками (за 1-3 часа до срока); квадратными скобками обозначены град или гололедные отложения с указанием их диаметра в мм.
Облачность - указаны через наклонную черту общая и нижняя облачность в баллах и высота нижней границы облаков в метрах; квадратными скобками обозначены формы облаков: Ci - перистые, Cs - перисто-слоистые, Cc - перисто-кучевые, Ac - высококучевые, As - высокослоистые, Sc - слоисто-кучевые, Ns - слоисто-дождевые, Cu - кучевые, Cb - кучево-дождевые. Подробнее классификацию облаков см. в Атласе облаков (PDF).
T - Температура воздуха - температура, измеренная на высоте 2 м над землей.
Td - Температура точки росы - температура, при понижении до которой содержащийся в воздухе водяной пар достигнет насыщения.
f - Относительная влажность воздуха - влажноcть воздуха, измеренная на высоте 2 м над землей.
Te - Эффективная температура - температура, которую ощущает одетый по сезону человек в тени. Характеристика душности погоды. При расчете учитывается влияние влажности воздуха и скорости ветра на теплоощущения человека.
Tes - Эффективная температура на солнце - температура, которую ощущает человек, с поправкой на солнечный нагрев. Характеристика знойности погоды. Зависит от высоты солнца над горизонтом, облачности и скорости ветра. Ночью, в пасмурную погоду, а также при ветре 12 м/с и более поправка равна нулю.
P - Атмосферное давление - приведенное к уровню моря атмосферное давление.
Po - Атмосферное давление - измеренное на уровне метеостанции атмосферное давление.
Tmin - Минимальная температура - минимум температуры воздуха на высоте 2 м над землей.
Tmax - Максимальная температура - максимум температуры воздуха на высоте 2 м над землей.
R - Количество осадков - Количество выпавших осадков за период времени, мм. При наведении курсора мыши на число - период времени, за который выпало указанное количество осадков.
R24 - Количество осадков - Количество выпавших осадков за 24 часа, мм.
S - Снежный покров - Высота снежного покрова, см. При наведении курсора мыши на число - состояние снежного покрова и степень покрытия местности в баллах.